This is the latest recevied weather packets stored in our database for station/object KC9NPJ-13. If no packets are shown the sender has not sent any weather packets the latest 10 day(s).
| Time | Temp. | Humidity | Pressure | Rain* | Wind** | Luminosity | Snow |
|---|---|---|---|---|---|---|---|
| 1778027639 | 8.89° C | 94% | 1009.6 hPa | 0 mm | - | - | - |
| 1778027339 | 8.89° C | 94% | 1009.5 hPa | 0 mm | - | - | - |
| 1778027039 | 8.89° C | 94% | 1009.3 hPa | 0 mm | - | - | - |
| 1778026739 | 8.89° C | 94% | 1009.3 hPa | 0 mm | - | - | - |
| 1778026439 | 8.89° C | 94% | 1009.5 hPa | 0 mm | - | - | - |
| 1778026139 | 8.89° C | 94% | 1009.1 hPa | 0.25 mm | - | - | - |
| 1778025839 | 8.89° C | 94% | 1008.8 hPa | 0.25 mm | - | - | - |
| 1778025539 | 8.89° C | 94% | 1008.9 hPa | 0.25 mm | - | - | - |
| 1778025239 | 8.89° C | 94% | 1009 hPa | 0.25 mm | - | - | - |
| 1778024939 | 8.89° C | 94% | 1009 hPa | 0.25 mm | - | - | - |
| 1778024639 | 8.89° C | 94% | 1009.1 hPa | 0.25 mm | - | - | - |
| 1778024339 | 9.44° C | 94% | 1009.3 hPa | 0.51 mm | - | - | - |
| 1778024039 | 9.44° C | 94% | 1009.1 hPa | 0.76 mm | - | - | - |
| 1778023739 | 9.44° C | 94% | 1009.1 hPa | 1.02 mm | - | - | - |
| 1778023439 | 9.44° C | 94% | 1008.9 hPa | 1.27 mm | - | - | - |
| 1778023139 | 10° C | 94% | 1008.8 hPa | 2.03 mm | - | - | - |
| 1778022839 | 10° C | 94% | 1009 hPa | 2.03 mm | - | - | - |
| 1778022539 | 10° C | 95% | 1009 hPa | 1.78 mm | - | - | - |
| 1778022239 | 10° C | 95% | 1009.1 hPa | 2.03 mm | - | - | - |
| 1778021939 | 10° C | 94% | 1009.4 hPa | 2.03 mm | - | - | - |
| 1778021639 | 10° C | 94% | 1009.6 hPa | 2.03 mm | - | - | - |
| 1778021339 | 10° C | 94% | 1009.5 hPa | 2.03 mm | - | - | - |
| 1778021040 | 9.44° C | 94% | 1009.4 hPa | 2.03 mm | - | - | - |
| 1778020739 | 9.44° C | 94% | 1009.4 hPa | 1.78 mm | - | - | - |
| 1778020440 | 9.44° C | 94% | 1009.5 hPa | 1.52 mm | - | - | - |
* Rain latest hour (hover to see other rain measurements)
** Current wind speed in m/s (hover to see current wind gust speed)